RYR6207 EGSS-EDDF

Flight info

Callsign RYR6207
Flight time 1h 7m
Altitude 37000
Route DET L6 DVR UL9 KONAN UL607 SPI T180 NIVNU T847 IMCOM IMCOM1B
Aircraft B738/M-SDE2E3FGHIRWXY/LB1

Departure

Time 2026-05-04 21:20
Airport London Stansted Airport (EGSS)

Arrival

Time 2026-05-04 22:28
Airport Frankfurt Main Airport (EDDF)
Time Latitude Longitude Altitude Speed Heading
2026-05-04 20:39 51.89192 0.25657 340 ft 0 kts 223°
2026-05-04 21:05 51.89196 0.25664 341 ft 2 kts 223°
2026-05-04 21:05 51.89207 0.25681 341 ft 2 kts 223°
2026-05-04 21:05 51.89218 0.25697 342 ft 2 kts 223°
2026-05-04 21:06 51.89229 0.25714 342 ft 2 kts 224°
2026-05-04 21:06 51.89235 0.25735 343 ft 2 kts 269°
2026-05-04 21:06 51.89232 0.25759 343 ft 1 kts 303°
2026-05-04 21:06 51.89228 0.25766 343 ft 1 kts 317°
2026-05-04 21:07 51.89225 0.25770 343 ft 0 kts 313°
2026-05-04 21:13 51.89228 0.25765 343 ft 1 kts 313°
2026-05-04 21:13 51.89244 0.25739 343 ft 4 kts 313°
2026-05-04 21:13 51.89270 0.25694 343 ft 6 kts 313°
2026-05-04 21:13 51.89305 0.25633 343 ft 7 kts 312°
2026-05-04 21:14 51.89339 0.25566 344 ft 7 kts 292°
2026-05-04 21:14 51.89318 0.25484 343 ft 9 kts 221°
2026-05-04 21:14 51.89263 0.25402 342 ft 12 kts 223°
2026-05-04 21:14 51.89196 0.25299 341 ft 14 kts 224°
2026-05-04 21:15 51.89117 0.25177 338 ft 17 kts 219°
2026-05-04 21:15 51.89019 0.25032 334 ft 20 kts 223°
2026-05-04 21:15 51.88907 0.24863 332 ft 23 kts 223°
2026-05-04 21:15 51.88782 0.24677 329 ft 24 kts 221°
2026-05-04 21:16 51.88694 0.24545 330 ft 16 kts 223°
2026-05-04 21:16 51.88608 0.24411 329 ft 18 kts 223°
2026-05-04 21:16 51.88519 0.24282 331 ft 17 kts 223°
2026-05-04 21:16 51.88425 0.24142 331 ft 18 kts 222°
2026-05-04 21:17 51.88335 0.23999 334 ft 18 kts 226°
2026-05-04 21:17 51.88242 0.23867 336 ft 17 kts 221°
2026-05-04 21:17 51.88155 0.23736 339 ft 17 kts 223°
2026-05-04 21:17 51.88067 0.23605 340 ft 17 kts 223°
2026-05-04 21:18 51.87975 0.23465 340 ft 18 kts 223°
2026-05-04 21:18 51.87877 0.23317 340 ft 19 kts 223°
2026-05-04 21:18 51.87780 0.23172 339 ft 16 kts 223°
2026-05-04 21:18 51.87736 0.23039 338 ft 13 kts 295°
2026-05-04 21:19 51.87798 0.22923 339 ft 13 kts 312°
2026-05-04 21:19 51.87862 0.22812 340 ft 14 kts 313°
2026-05-04 21:19 51.87933 0.22695 340 ft 14 kts 333°
2026-05-04 21:19 51.88026 0.22771 340 ft 23 kts 43°
2026-05-04 21:20 51.88215 0.23051 343 ft 68 kts 42°
2026-05-04 21:20 51.88791 0.23915 337 ft 153 kts 42°
2026-05-04 21:20 51.89590 0.25138 1208 ft 160 kts 41°
2026-05-04 21:20 51.90373 0.26293 2320 ft 157 kts 41°
2026-05-04 21:21 51.91152 0.27497 3286 ft 162 kts 47°
2026-05-04 21:21 51.91676 0.29141 4096 ft 178 kts 77°
2026-05-04 21:21 51.91649 0.31183 5016 ft 189 kts 101°
2026-05-04 21:21 51.91189 0.33174 5856 ft 202 kts 113°
2026-05-04 21:22 51.90536 0.35377 6490 ft 230 kts 114°
2026-05-04 21:22 51.89850 0.37685 7661 ft 233 kts 114°
2026-05-04 21:22 51.89172 0.40022 8941 ft 230 kts 114°
2026-05-04 21:22 51.88520 0.42282 10076 ft 230 kts 115°
2026-05-04 21:23 51.87794 0.44773 10513 ft 264 kts 115°
2026-05-04 21:23 51.86967 0.47599 10955 ft 291 kts 115°
2026-05-04 21:23 51.86063 0.50672 11397 ft 313 kts 115°
2026-05-04 21:23 51.85099 0.53946 11826 ft 334 kts 115°
2026-05-04 21:24 51.84073 0.57426 12257 ft 347 kts 115°
2026-05-04 21:24 51.83102 0.60953 12663 ft 350 kts 108°
2026-05-04 21:24 51.82721 0.64823 13106 ft 352 kts 90°
2026-05-04 21:24 51.82836 0.68817 13539 ft 355 kts 85°
2026-05-04 21:25 51.83084 0.72787 13959 ft 357 kts 84°
2026-05-04 21:25 51.83338 0.76743 14370 ft 358 kts 84°
2026-05-04 21:25 51.83566 0.80768 14801 ft 361 kts 85°
2026-05-04 21:25 51.83760 0.84810 15234 ft 363 kts 86°
2026-05-04 21:26 51.83896 0.88831 15648 ft 364 kts 91°
2026-05-04 21:26 51.83414 0.92863 16075 ft 366 kts 113°
2026-05-04 21:26 51.82192 0.96399 16515 ft 367 kts 124°
2026-05-04 21:26 51.80689 0.99774 16950 ft 368 kts 128°
2026-05-04 21:27 51.79139 1.03059 17366 ft 370 kts 128°
2026-05-04 21:27 51.77602 1.06349 17786 ft 372 kts 127°
2026-05-04 21:27 51.76059 1.09743 18217 ft 374 kts 127°
2026-05-04 21:27 51.74551 1.13144 18639 ft 375 kts 126°
2026-05-04 21:28 51.73061 1.16566 19058 ft 378 kts 126°
2026-05-04 21:28 51.71553 1.20063 19499 ft 380 kts 126°
2026-05-04 21:28 51.70058 1.23541 19928 ft 385 kts 126°
2026-05-04 21:28 51.68528 1.27102 20367 ft 387 kts 126°
2026-05-04 21:29 51.66903 1.30571 20802 ft 389 kts 131°
2026-05-04 21:29 51.64938 1.33525 21234 ft 390 kts 146°
2026-05-04 21:29 51.62539 1.35489 21674 ft 390 kts 161°
2026-05-04 21:29 51.59904 1.36436 22117 ft 391 kts 174°
2026-05-04 21:30 51.57197 1.36762 22561 ft 394 kts 178°
2026-05-04 21:30 51.54494 1.36949 22999 ft 395 kts 179°
2026-05-04 21:30 51.51733 1.37095 23446 ft 398 kts 179°
2026-05-04 21:30 51.48981 1.37261 23892 ft 401 kts 178°
2026-05-04 21:31 51.43564 1.39405 24804 ft 409 kts 152°
2026-05-04 21:31 51.41305 1.42114 25265 ft 414 kts 137°
2026-05-04 21:31 51.39398 1.45582 25739 ft 418 kts 130°
2026-05-04 21:32 51.37604 1.49236 26204 ft 420 kts 129°
2026-05-04 21:32 51.35812 1.52987 26677 ft 423 kts 128°
2026-05-04 21:32 51.34044 1.56715 27145 ft 425 kts 128°
2026-05-04 21:32 51.32254 1.60484 27619 ft 428 kts 128°
2026-05-04 21:33 51.30467 1.64227 28091 ft 429 kts 128°
2026-05-04 21:33 51.28642 1.68030 28568 ft 430 kts 129°
2026-05-04 21:33 51.26817 1.71812 29043 ft 432 kts 129°
2026-05-04 21:33 51.24981 1.75603 29521 ft 435 kts 129°
2026-05-04 21:34 51.23108 1.79456 30008 ft 437 kts 129°
2026-05-04 21:34 51.21225 1.83321 30496 ft 439 kts 129°
2026-05-04 21:34 51.19341 1.87179 30981 ft 442 kts 130°
2026-05-04 21:34 51.17422 1.91101 31410 ft 443 kts 130°
2026-05-04 21:35 51.15572 1.94965 31836 ft 443 kts 127°
2026-05-04 21:35 51.13966 1.99209 32266 ft 444 kts 117°
2026-05-04 21:35 51.12953 2.03810 32689 ft 449 kts 105°
2026-05-04 21:35 51.12444 2.08754 33116 ft 451 kts 99°
2026-05-04 21:36 51.12117 2.13701 33518 ft 452 kts 97°
2026-05-04 21:36 51.11861 2.18688 33913 ft 452 kts 96°
2026-05-04 21:36 51.11634 2.23634 34282 ft 452 kts 96°
2026-05-04 21:36 51.11407 2.28624 34642 ft 451 kts 96°
2026-05-04 21:37 51.11176 2.33564 34952 ft 451 kts 96°
2026-05-04 21:37 51.10931 2.38537 35229 ft 450 kts 96°
2026-05-04 21:37 51.10678 2.43440 35492 ft 449 kts 96°
2026-05-04 21:37 51.10412 2.48408 35747 ft 449 kts 97°
2026-05-04 21:38 51.10143 2.53296 35986 ft 448 kts 97°
2026-05-04 21:38 51.09864 2.58254 36206 ft 448 kts 97°
2026-05-04 21:38 51.09532 2.63104 36041 ft 447 kts 99°
2026-05-04 21:38 51.08982 2.68017 36175 ft 446 kts 105°
2026-05-04 21:39 51.08260 2.72739 36343 ft 446 kts 108°
2026-05-04 21:39 51.07422 2.77522 36523 ft 446 kts 109°
2026-05-04 21:39 51.06554 2.82191 36712 ft 446 kts 109°
2026-05-04 21:39 51.05655 2.86945 36893 ft 446 kts 109°
2026-05-04 21:40 51.04755 2.91687 36980 ft 448 kts 109°
2026-05-04 21:40 51.02973 3.01117 36982 ft 446 kts 109°
2026-05-04 21:41 51.01212 3.10537 36978 ft 447 kts 109°
2026-05-04 21:41 50.99471 3.19896 36975 ft 446 kts 109°
2026-05-04 21:42 50.97715 3.29318 36966 ft 445 kts 109°
2026-05-04 21:42 50.95960 3.38696 36964 ft 445 kts 109°
2026-05-04 21:43 50.94191 3.48106 36957 ft 445 kts 109°
2026-05-04 21:43 50.92422 3.57467 36961 ft 445 kts 109°
2026-05-04 21:44 50.90638 3.66867 36954 ft 446 kts 110°
2026-05-04 21:44 50.88840 3.76227 36954 ft 445 kts 110°
2026-05-04 21:45 50.87026 3.85589 36948 ft 446 kts 110°
2026-05-04 21:45 50.85191 3.95016 36945 ft 446 kts 110°
2026-05-04 21:46 50.83363 4.04366 36943 ft 446 kts 110°
2026-05-04 21:46 50.81531 4.13696 36937 ft 446 kts 110°
2026-05-04 21:47 50.79702 4.22972 36937 ft 446 kts 110°
2026-05-04 21:47 50.77848 4.32343 36939 ft 446 kts 110°
2026-05-04 21:48 50.75993 4.41658 36938 ft 446 kts 110°
2026-05-04 21:48 50.74122 4.50985 36939 ft 447 kts 110°
2026-05-04 21:49 50.72244 4.60308 36940 ft 447 kts 110°
2026-05-04 21:49 50.70411 4.69609 36938 ft 447 kts 110°
2026-05-04 21:50 50.68601 4.78972 36935 ft 448 kts 110°
2026-05-04 21:50 50.66778 4.88376 36933 ft 447 kts 110°
2026-05-04 21:51 50.64940 4.97682 36936 ft 447 kts 111°
2026-05-04 21:51 50.63026 5.07018 36942 ft 447 kts 111°
2026-05-04 21:52 50.61105 5.16280 36945 ft 446 kts 111°
2026-05-04 21:52 50.59176 5.25544 36949 ft 446 kts 111°
2026-05-04 21:53 50.57250 5.34778 36950 ft 445 kts 111°
2026-05-04 21:53 50.55301 5.44079 36952 ft 447 kts 111°
2026-05-04 21:54 50.53345 5.53377 36954 ft 447 kts 112°
2026-05-04 21:54 50.51389 5.62646 36956 ft 446 kts 111°
2026-05-04 21:55 50.49559 5.71956 36951 ft 446 kts 110°
2026-05-04 21:55 50.47873 5.81134 36575 ft 434 kts 110°
2026-05-04 21:55 50.47040 5.85695 36202 ft 431 kts 111°
2026-05-04 21:56 50.46212 5.90185 35690 ft 433 kts 111°
2026-05-04 21:56 50.45374 5.94689 35034 ft 437 kts 111°
2026-05-04 21:56 50.44512 5.99294 34221 ft 440 kts 111°
2026-05-04 21:56 50.43652 6.03877 33545 ft 439 kts 111°
2026-05-04 21:57 50.42797 6.08422 33009 ft 433 kts 111°
2026-05-04 21:57 50.41952 6.12904 32475 ft 428 kts 112°
2026-05-04 21:57 50.41110 6.17351 31945 ft 424 kts 112°
2026-05-04 21:57 50.40281 6.21706 31422 ft 419 kts 112°
2026-05-04 21:58 50.39443 6.26089 30891 ft 414 kts 112°
2026-05-04 21:58 50.38621 6.30371 30364 ft 410 kts 112°
2026-05-04 21:58 50.37809 6.34593 29842 ft 405 kts 112°
2026-05-04 21:58 50.37028 6.38757 29343 ft 401 kts 110°
2026-05-04 21:59 50.36397 6.42991 28845 ft 399 kts 105°
2026-05-04 21:59 50.35989 6.47259 28343 ft 396 kts 101°
2026-05-04 21:59 50.35703 6.51473 27849 ft 393 kts 99°
2026-05-04 21:59 50.35457 6.55723 27347 ft 388 kts 99°
2026-05-04 22:00 50.35226 6.59845 26866 ft 384 kts 99°
2026-05-04 22:00 50.34989 6.64002 26373 ft 380 kts 99°
2026-05-04 22:00 50.34750 6.68052 25893 ft 375 kts 100°
2026-05-04 22:00 50.34499 6.72160 25411 ft 380 kts 100°
2026-05-04 22:01 50.34234 6.76310 24918 ft 392 kts 99°
2026-05-04 22:01 50.33957 6.80546 24399 ft 388 kts 100°
2026-05-04 22:01 50.33591 6.84635 23909 ft 381 kts 104°
2026-05-04 22:01 50.32917 6.88587 23429 ft 371 kts 113°
2026-05-04 22:02 50.31985 6.92284 23030 ft 366 kts 117°
2026-05-04 22:02 50.30920 6.95901 22774 ft 369 kts 119°
2026-05-04 22:02 50.29793 6.99528 22511 ft 370 kts 120°
2026-05-04 22:02 50.28676 7.03104 22248 ft 366 kts 119°
2026-05-04 22:03 50.27570 7.06678 22010 ft 364 kts 119°
2026-05-04 22:03 50.26487 7.10215 21971 ft 363 kts 118°
2026-05-04 22:03 50.25402 7.13783 21973 ft 365 kts 118°
2026-05-04 22:03 50.24330 7.17323 21814 ft 360 kts 118°
2026-05-04 22:04 50.23282 7.20797 20978 ft 354 kts 118°
2026-05-04 22:04 50.22237 7.24269 19937 ft 353 kts 118°
2026-05-04 22:04 50.21217 7.27667 18992 ft 349 kts 118°
2026-05-04 22:04 50.20193 7.31076 18031 ft 345 kts 118°
2026-05-04 22:05 50.19509 7.33375 17427 ft 342 kts 117°
2026-05-04 22:05 50.19107 7.34822 17055 ft 340 kts 115°
2026-05-04 22:05 50.18254 7.38245 16170 ft 335 kts 112°
2026-05-04 22:06 50.17485 7.41613 15303 ft 329 kts 112°
2026-05-04 22:06 50.16743 7.44899 14435 ft 323 kts 112°
2026-05-04 22:06 50.15995 7.48161 13560 ft 318 kts 112°
2026-05-04 22:06 50.15256 7.51330 12959 ft 308 kts 113°
2026-05-04 22:07 50.14529 7.54406 12967 ft 306 kts 113°
2026-05-04 22:07 50.13762 7.57602 12968 ft 315 kts 113°
2026-05-04 22:07 50.13003 7.60757 12965 ft 316 kts 114°
2026-05-04 22:07 50.12226 7.63983 12970 ft 317 kts 113°
2026-05-04 22:08 50.11447 7.67183 12972 ft 315 kts 116°
2026-05-04 22:08 50.10479 7.70236 12964 ft 313 kts 124°
2026-05-04 22:08 50.09308 7.73027 12965 ft 311 kts 129°
2026-05-04 22:08 50.08038 7.75755 12960 ft 310 kts 129°
2026-05-04 22:09 50.06788 7.78416 12889 ft 300 kts 129°
2026-05-04 22:09 50.05584 7.81020 12152 ft 296 kts 129°
2026-05-04 22:09 50.04396 7.83631 11121 ft 301 kts 128°
2026-05-04 22:09 50.03215 7.86267 10248 ft 299 kts 127°
2026-05-04 22:10 50.02058 7.88876 9405 ft 297 kts 127°
2026-05-04 22:10 50.00903 7.91483 8569 ft 294 kts 127°
2026-05-04 22:10 49.99755 7.94080 7735 ft 290 kts 127°
2026-05-04 22:10 49.98709 7.96690 6881 ft 289 kts 123°
2026-05-04 22:11 49.97725 7.99382 6063 ft 286 kts 121°
2026-05-04 22:11 49.96787 8.02054 5165 ft 286 kts 121°
2026-05-04 22:11 49.95858 8.04699 4917 ft 270 kts 121°
2026-05-04 22:11 49.94941 8.07273 4954 ft 278 kts 121°
2026-05-04 22:12 49.94027 8.09819 4921 ft 263 kts 121°
2026-05-04 22:12 49.93151 8.12266 4926 ft 257 kts 121°
2026-05-04 22:12 49.92274 8.14695 4927 ft 258 kts 121°
2026-05-04 22:12 49.91389 8.17116 4936 ft 258 kts 121°
2026-05-04 22:13 49.90503 8.19529 4933 ft 258 kts 121°
2026-05-04 22:13 49.89620 8.21953 4930 ft 259 kts 121°
2026-05-04 22:13 49.88750 8.24372 4929 ft 260 kts 119°
2026-05-04 22:13 49.88096 8.26972 4921 ft 262 kts 102°
2026-05-04 22:14 49.88149 8.29808 4937 ft 266 kts 76°
2026-05-04 22:14 49.88782 8.32484 4918 ft 266 kts 68°
2026-05-04 22:14 49.89471 8.35118 4929 ft 267 kts 69°
2026-05-04 22:14 49.90146 8.37812 4933 ft 266 kts 70°
2026-05-04 22:15 49.90790 8.40474 4938 ft 266 kts 70°
2026-05-04 22:15 49.91434 8.43176 4941 ft 266 kts 71°
2026-05-04 22:15 49.92069 8.45854 4943 ft 265 kts 70°
2026-05-04 22:15 49.92711 8.48540 4942 ft 265 kts 70°
2026-05-04 22:16 49.93356 8.51225 4942 ft 266 kts 70°
2026-05-04 22:16 49.93996 8.53894 4942 ft 265 kts 70°
2026-05-04 22:16 49.94637 8.56578 4936 ft 265 kts 70°
2026-05-04 22:16 49.95258 8.59173 4816 ft 248 kts 69°
2026-05-04 22:17 49.95851 8.61657 4539 ft 240 kts 69°
2026-05-04 22:17 49.96428 8.64069 4256 ft 239 kts 69°
2026-05-04 22:17 49.97004 8.66462 4025 ft 235 kts 69°
2026-05-04 22:17 49.97574 8.68815 3993 ft 235 kts 68°
2026-05-04 22:18 49.98156 8.71209 3988 ft 235 kts 69°
2026-05-04 22:18 49.98728 8.73585 3991 ft 235 kts 69°
2026-05-04 22:18 49.99292 8.75958 3988 ft 235 kts 69°
2026-05-04 22:18 49.99860 8.78354 3988 ft 235 kts 69°
2026-05-04 22:19 50.00420 8.80736 3981 ft 235 kts 70°
2026-05-04 22:19 50.00969 8.83147 3978 ft 236 kts 70°
2026-05-04 22:19 50.01517 8.85512 3981 ft 236 kts 69°
2026-05-04 22:19 50.02085 8.87925 3981 ft 235 kts 69°
2026-05-04 22:20 50.02654 8.90290 3979 ft 234 kts 69°
2026-05-04 22:20 50.03222 8.92640 3978 ft 233 kts 69°
2026-05-04 22:20 50.03786 8.95001 3977 ft 233 kts 69°
2026-05-04 22:20 50.04346 8.97394 3980 ft 233 kts 69°
2026-05-04 22:21 50.04877 8.99661 3991 ft 217 kts 66°
2026-05-04 22:21 50.05756 9.01440 3986 ft 207 kts 30°
2026-05-04 22:21 50.07132 9.01935 3994 ft 207 kts 356°
2026-05-04 22:21 50.08543 9.01447 3981 ft 207 kts 338°
2026-05-04 22:22 50.09790 9.00367 3970 ft 208 kts 321°
2026-05-04 22:22 50.10756 8.98692 3957 ft 208 kts 299°
2026-05-04 22:22 50.11311 8.96638 3954 ft 208 kts 291°
2026-05-04 22:22 50.11901 8.94564 3952 ft 207 kts 288°
2026-05-04 22:23 50.12000 8.92369 3954 ft 207 kts 257°
2026-05-04 22:23 50.11536 8.90233 3955 ft 207 kts 248°
2026-05-04 22:23 50.11005 8.88170 3955 ft 207 kts 249°
2026-05-04 22:23 50.10505 8.86080 3957 ft 208 kts 250°
2026-05-04 22:24 50.10011 8.83952 3824 ft 209 kts 251°
2026-05-04 22:24 50.09512 8.81827 3538 ft 210 kts 251°
2026-05-04 22:24 50.09010 8.79701 3240 ft 210 kts 251°
2026-05-04 22:24 50.08499 8.77545 2944 ft 211 kts 251°
2026-05-04 22:25 50.07993 8.75406 2651 ft 211 kts 251°
2026-05-04 22:25 50.07490 8.73288 2363 ft 212 kts 251°
2026-05-04 22:25 50.06977 8.71122 2070 ft 212 kts 251°
2026-05-04 22:25 50.06477 8.69022 1813 ft 200 kts 251°
2026-05-04 22:26 50.06028 8.67135 1541 ft 175 kts 251°
2026-05-04 22:26 50.05635 8.65478 1302 ft 156 kts 251°
2026-05-04 22:26 50.05267 8.63936 1109 ft 150 kts 251°
2026-05-04 22:26 50.04908 8.62432 913 ft 148 kts 251°
2026-05-04 22:27 50.04552 8.60914 710 ft 146 kts 251°
2026-05-04 22:27 50.04199 8.59450 515 ft 146 kts 250°
2026-05-04 22:27 50.03847 8.57977 369 ft 139 kts 251°
2026-05-04 22:27 50.03587 8.56889 342 ft 78 kts 250°
2026-05-04 22:28 50.03440 8.56265 339 ft 39 kts 253°
2026-05-04 22:28 50.03453 8.55928 337 ft 27 kts 280°
2026-05-04 22:28 50.03484 8.55657 337 ft 20 kts 278°
2026-05-04 22:28 50.03485 8.55436 337 ft 21 kts 253°
2026-05-04 22:29 50.03433 8.55215 336 ft 22 kts 249°
2026-05-04 22:29 50.03377 8.54987 335 ft 21 kts 250°
2026-05-04 22:29 50.03330 8.54784 334 ft 20 kts 250°
2026-05-04 22:29 50.03284 8.54598 332 ft 18 kts 252°
2026-05-04 22:30 50.03307 8.54481 331 ft 10 kts 336°
2026-05-04 22:30 50.03332 8.54469 331 ft 0 kts 343°
2026-05-04 22:32 50.03334 8.54468 331 ft 1 kts 343°
2026-05-04 22:32 50.03373 8.54448 332 ft 10 kts 341°
2026-05-04 22:32 50.03459 8.54397 333 ft 13 kts 339°
2026-05-04 22:33 50.03548 8.54345 335 ft 13 kts 340°
2026-05-04 22:33 50.03637 8.54316 337 ft 12 kts 21°
2026-05-04 22:33 50.03684 8.54426 338 ft 12 kts 69°
2026-05-04 22:33 50.03716 8.54560 338 ft 13 kts 70°
2026-05-04 22:34 50.03749 8.54703 340 ft 13 kts 70°
2026-05-04 22:34 50.03783 8.54834 343 ft 12 kts 69°
2026-05-04 22:34 50.03817 8.54987 344 ft 18 kts 71°
2026-05-04 22:34 50.03867 8.55193 348 ft 20 kts 69°
2026-05-04 22:35 50.03918 8.55404 349 ft 21 kts 70°
2026-05-04 22:35 50.03971 8.55623 349 ft 21 kts 70°
2026-05-04 22:35 50.04024 8.55844 348 ft 22 kts 69°
2026-05-04 22:35 50.04076 8.56068 352 ft 21 kts 71°
2026-05-04 22:36 50.04127 8.56282 355 ft 20 kts 69°
2026-05-04 22:36 50.04177 8.56492 357 ft 20 kts 69°
2026-05-04 22:36 50.04225 8.56694 360 ft 15 kts 70°
2026-05-04 22:36 50.04266 8.56799 363 ft 9 kts 24°
2026-05-04 22:37 50.04326 8.56820 366 ft 7 kts 11°
2026-05-04 22:37 50.04376 8.56836 368 ft 7 kts 11°
2026-05-04 22:37 50.04433 8.56852 369 ft 9 kts 10°
2026-05-04 22:37 50.04477 8.56939 370 ft 12 kts 68°
2026-05-04 22:38 50.04513 8.57082 370 ft 14 kts 71°
2026-05-04 22:38 50.04547 8.57188 371 ft 10 kts 26°
2026-05-04 22:38 50.04600 8.57197 372 ft 0 kts